Location: D?uga
(50.2667°N, 19.7833°E)
Time: 14:33:46
(UTC+00:00)

Cosmos 1378 Rocket - Pass Details

Date: 23 May 2024
Orbit: 598 x 623 km, 82.5° (Epoch: 12 June)

Event Time Altitude Azimuth Distance (km) Brightness Sun altitude
Exits shadow 01:33:03 - 182° (S) 2,314 6.0 -9.2°
Reaches altitude 10° 01:33:59 10° 181° (S) 1,935 5.7 -9.1°
Maximum altitude 01:38:14 71° 97° (E) 638 3.8 -8.7°
Drops below altitude 10° 01:42:32 10° 14° (NNE) 1,955 7.2 -8.2°
Sets 01:44:46 0° 12° (NNE) 2,865 8.1 -8.0°
